Estación Meteorológica Peña el Pijo (Robertgarden) [ 07/11/20 22:59:05 CEST ]

Fecha Hora Presion(HPa) Temp (°C) Humedad % Rocio (°C) Viento ( m/s) Direccion Lluvia 1Hora(mm) Lluvia 24H(mm) LLuvia Total(mm)
2020-Mar-31 01:09:41 997.800 - - - - N     39.88
2020-Mar-31 02:09:25 997.400 - - - - N     39.88
2020-Mar-31 03:09:59 996.600 - - - - N     39.88
2020-Mar-31 04:11:09 996.000 - - - - N     39.88
2020-Mar-31 05:09:05 995.600 - - - - N     39.88
2020-Mar-31 06:09:27 994.900 - - - - N     39.88
2020-Mar-31 07:09:05 995.100 - - - - N     39.88
2020-Mar-31 08:09:20 995.500 - - - - N     39.88
2020-Mar-31 09:08:52 996.100 - - - - N     39.88
2020-Mar-31 10:08:56 996.500 - - - - N     39.88
2020-Mar-31 11:09:20 996.800 - - - - N     39.88
2020-Mar-31 12:09:14 996.800 - - - - N     39.88
2020-Mar-31 13:09:15 996.700 - - - - N     39.88
2020-Mar-31 14:09:18 996.800 - - - - N     39.88
2020-Mar-31 15:09:01 996.900 - - - - N     39.88
2020-Mar-31 16:08:57 996.500 - - - - N     39.88
2020-Mar-31 17:09:02 996.700 - - - - N     39.88
2020-Mar-31 18:09:25 997.100 - - - - N     39.88
2020-Mar-31 19:09:02 997.500 - - - - N     39.88
2020-Mar-31 20:08:55 997.700 - - - - N     39.88
2020-Mar-31 21:09:15 998.800 - - - - N     39.88
2020-Mar-31 22:09:00 999.400 - - - - N     39.88
2020-Mar-31 23:09:38 1000.000 - - - - N     39.88

Temperatura Máxima:    Temperatura Mínima:
Presión Máxima:1000.000 Hpa    Presión Mínima:994.900 Hpa


Volver